Starlink 11413

operational
NORAD ID: 62593 Int'l Des: 2025-008 Owner: SPXS Country: US Constellation: starlink
LEOCIRCULAR

关于 Starlink 11413

正在加载描述...

实时位置

正在加载3D地球...

即将过境

高度历史

Altitude vs Time

uPlot chart will show altitude changes over time

两行轨道根数

1 62593U 25008G 25305.01375702 .00117849 00000-0 90782-3 0 9999
2 62593 42.9998 182.0680 0001453 280.2540 79.8164 15.70869686 46941
Epoch: Nov 1, 2025 • Age: 66 hours

当前状态

高度 357.4 km
速度 7.70 km/s
星下点 37.79°N, 29.98°W
发射日期 Jan 13, 2025
运行时间 0.8 years
类型 internet

技术详情

分类 Payload
质量 960.00 kg
干质量 910.00 kg
总质量 960.00 kg
长度 0.30 m
直径 4.10 m
跨度 29.00 m
形状 Box + pan
制造商 SPXS
平台类型 Starlink V2MD
阶段状态 In Orbit
所有者/国家 SPXS/US

大型星座

Loading constellations...